Location: Clanezzo
(45.7500°N, 9.6000°E)
Time: 09:55:57
(UTC+00:00)

CUBEBUG 2 - Visible Passes

Search period start: 29 June 2022 00:00
Search period end: 09 July 2022 00:00
Orbit: 582 x 695 km, 97.7° (Epoch: 28 June)

Date Brightness Start Highest point End Pass type
(mag) Time Alt. Az. Time Alt. Az. Time Alt. Az.
29 Jun ? 01:30:47 10° NE 01:34:01 21° E 01:37:16 10° SE visible
30 Jun ? 01:53:17 10° NNE 01:57:11 36° E 02:01:07 10° SSE visible
01 Jul ? 02:16:05 10° NNE 02:20:16 66° ESE 02:24:31 10° S visible
02 Jul ? 01:04:54 10° ENE 01:06:19 11° E 01:07:45 10° ESE visible
02 Jul ? 02:39:06 10° N 02:43:17 71° WNW 02:47:32 10° SSW visible
03 Jul ? 01:26:26 10° NE 01:29:34 20° E 01:32:44 10° SE visible
04 Jul ? 01:48:52 10° NNE 01:52:44 34° E 01:56:39 10° SSE visible
05 Jul ? 02:11:38 10° NNE 02:15:49 60° E 02:20:06 10° S visible
06 Jul ? 01:00:55 10° ENE 01:01:50 11° E 01:02:45 10° E visible
06 Jul ? 02:34:36 10° N 02:38:51 78° WNW 02:43:11 10° SSW visible
07 Jul ? 01:22:04 10° NE 01:25:05 19° E 01:28:09 10° SE visible
07 Jul ? 02:57:45 10° N 03:01:48 45° WNW 03:05:57 10° SW visible
08 Jul ? 01:44:26 10° NNE 01:48:16 31° E 01:52:10 10° SSE visible
